Location: Daybis Observatory
(33.4273°N, 88.8061°W)
Time: 04:58:36
(UTC-05:00)

Daily predictions for brighter satellites

Satellite Brightness Start Highest point End
(mag) Time Altitude Azimuth Time Altitude Azimuth Time Altitude Azimuth
ATLAS 2AS CENTAUR R/B 4.0 01:20:13 40° NNW 01:20:13 40° NNW 01:26:03 10° NNE
ATLAS 3B R/B 4.5 01:51:14 10° NNW 01:53:17 21° NNW 01:53:17 21° NNW
CZ-2D R/B 4.4 02:16:50 10° NE 02:18:55 17° ENE 02:18:55 17° ENE
USA 215 4.3 02:21:45 10° NNE 02:26:58 35° NNW 02:26:58 35° NNW
Cosmos 1943 Rocket 4.2 02:25:57 10° NNW 02:27:55 22° NNW 02:27:55 22° NNW
NOSS 3-2 (C) 4.3 02:39:20 10° NNW 02:46:56 62° ENE 02:50:12 38° ESE
ARIANE 5 R/B 4.1 02:46:27 10° NNE 02:49:48 32° ENE 02:49:48 32° ENE
SL-16 R/B 3.4 02:51:40 43° E 02:52:14 44° ENE 02:58:01 10° N
USA 267 4.3 02:50:50 10° ESE 02:56:54 43° NE 03:03:00 10° NNW
ADEOS Rocket 3.6 02:54:09 10° NNE 03:00:02 55° E 03:00:02 55° E
GEOS 3 Rocket 4.5 03:02:10 10° NNE 03:05:55 48° NNE 03:05:55 48° NNE
NOSS 3-4 (A) 4.5 03:09:46 36° NNW 03:09:46 36° NNW 03:14:50 10° NNE
NOSS 3-4 (C) 4.5 03:09:52 37° NNW 03:09:52 37° NNW 03:14:57 10° NNE
NOSS 3-2 (A) 4.3 03:20:15 10° NW 03:26:14 52° WNW 03:26:14 52° WNW
Lacrosse 5 rocket 2.5 03:41:40 46° N 03:41:40 46° N 03:45:12 10° NNE
Cosmos 389 Rocket 4.5 03:45:35 10° NNE 03:48:42 27° ENE 03:49:04 26° E
Cosmos 1624 Rocket 4.0 03:43:45 10° NNW 03:48:59 79° ENE 03:49:36 68° SE
MOS 1 Rocket 4.0 03:44:56 10° NNE 03:49:08 45° E 03:49:35 43° ESE
Cosmos 1758 Rocket 4.4 03:51:06 42° NNW 03:51:06 42° NNW 03:54:04 10° N
Resurs 1-4 Rocket 2.6 03:45:18 10° N 03:49:36 46° NW 03:49:36 46° NW
Cosmos-2242 4.1 03:49:31 10° N 03:53:42 42° E 03:55:20 29° SE
USA 32 4.2 03:54:34 58° NW 03:54:34 58° NW 03:59:11 10° N
CZ-2D R/B 2.8 03:55:55 10° N 04:00:15 39° NW 04:00:15 39° NW
Cosmos 921 Rocket 3.0 03:57:44 10° NNW 04:02:15 83° ENE 04:02:20 82° E
Cosmos 2056 Rocket 3.3 03:57:05 10° NNW 04:02:25 83° WSW 04:03:28 58° S
Cosmos 2082 Rocket 2.9 04:08:27 25° SSE 04:11:26 49° ESE 04:16:54 10° NNE
Cosmos 1727 Rocket 3.9 04:10:07 39° S 04:12:35 84° W 04:18:47 10° N
Cosmos 1833 Rocket 3.6 04:09:32 23° SSE 04:12:42 45° ESE 04:18:00 10° NE
COSMOS 2455 3.7 04:08:21 10° NW 04:12:08 32° WNW 04:12:08 32° WNW
Meteor 2-15 4.4 04:14:17 31° S 04:17:25 89° E 04:23:35 10° N
MOZ.5/SAFIR/RUBIN 5/SL-8 3.6 04:19:03 54° SSW 04:19:56 69° WSW 04:24:36 10° NNW
CZ-4B R/B 4.3 04:20:07 10° NNE 04:25:08 41° E 04:30:05 10° S
Meteor 2-15 Rocket 4.4 04:21:54 23° S 04:25:56 87° E 04:32:06 10° N
Cosmos 1153 Rocket 4.4 04:20:22 10° N 04:26:30 85° E 04:32:39 10° S
Landsat 4 3.8 04:24:55 25° SSE 04:26:59 71° ENE 04:30:42 10° N
CZ-2D R/B 4.1 04:23:45 10° N 04:27:05 36° WNW 04:27:05 36° WNW
Cosmos 1707 2.8 04:27:49 56° WNW 04:27:49 56° WNW 04:31:30 10° N
ARIANE 5 R/B 4.0 04:26:16 10° NNW 04:30:07 21° WNW 04:30:09 21° WNW
SL-16 R/B 3.6 04:36:44 23° W 04:36:44 23° W 04:40:46 10° NW
Meteor 1-16 Rocket 4.3 04:31:44 10° N 04:37:06 73° E 04:42:21 10° SSE
Cosmos 1452 Rocket 3.5 04:32:10 10° NNW 04:37:27 82° ENE 04:42:41 10° SSE
Cosmos 1470 3.1 04:35:31 10° NNW 04:39:06 42° W 04:39:06 42° W
USA 267 3.4 04:33:33 10° SSE 04:39:47 47° SW 04:46:03 10° NW
Cosmos 1953 4.4 04:37:44 10° NW 04:38:39 14° NW 04:38:39 14° NW
COSMOS 2487 3.2 04:43:51 35° WNW 04:43:53 35° WNW 04:47:11 10° N
ADEOS Rocket 4.4 04:40:56 10° NNW 04:45:22 21° WNW 04:46:59 19° W
Cosmos 1378 3.4 04:46:11 41° WSW 04:46:54 47° W 04:50:31 10° N
IRS-1C Rocket 4.3 04:41:52 10° NNE 04:47:09 72° ESE 04:52:23 10° S
Intercosmos 25 4.0 04:41:35 10° NNW 04:48:10 64° W 04:51:40 15° S
GPS 2-05 Rocket1 2.8 04:47:25 46° SW 04:48:18 73° SSE 04:51:45 10° ENE
CENTAUR R/B 3.1 04:40:40 10° NW 04:48:42 66° WSW 04:57:02 10° SSE
BREEZE-M DEB (TANK) 4.4 04:42:40 19° SW 04:49:40 54° SSE 04:53:31 10° ENE
Intelsat 5-3 Rocket 3.8 04:51:19 20° S 04:51:19 20° S 04:53:28 10° SE
Cosmos 1459 Rocket 4.1 04:44:55 10° N 04:51:06 77° E 04:57:21 10° S
Okean O Rocket 1.5 04:47:48 10° N 04:52:14 80° WNW 04:55:38 17° SSW
Cosmos 1420 Rocket 4.2 04:48:51 10° NNW 04:54:10 74° ENE 04:59:26 10° SSE
Cosmos 1048 Rocket 3.9 04:52:01 20° SSW 04:55:38 73° WNW 05:00:46 10° NNE
ADEOS II 2.0 04:51:13 10° N 04:56:29 81° WNW 05:01:44 10° SSW
Meteor 1-24 Rocket 3.6 04:53:38 11° SSW 04:58:49 76° W 05:04:25 10° N
Timation 2 Rocket 4.2 04:52:26 11° SSW 04:59:03 82° ESE 05:05:35 10° NNE
In-Cosmos 22 4.3 04:55:11 10° S 05:00:30 71° E 05:05:46 10° NNE
Geosat FO 4.5 05:00:11 10° SSE 05:03:45 69° WSW 05:07:21 10° NNW
Tiangong 1 2.7 05:04:53 10° NW 05:07:26 29° NNE 05:09:59 10° E
Cosmos 1269 Rocket 4.2 05:04:30 16° SW 05:08:34 55° WNW 05:13:45 10° N
Cosmos 1076 Rocket 4.4 05:05:58 10° SSE 05:10:03 49° E 05:14:09 10° NNE
IUS-18 SRM-1 2.6 05:14:09 19° SSW 05:14:31 20° S 05:16:15 10° SE
SL-24 R/B 4.1 05:11:16 10° N 05:15:51 75° WNW 05:20:03 10° SSW
Lacrosse 5 rocket 4.0 05:19:32 10° NW 05:20:41 11° NNW 05:21:50 10° NNW
CZ-4B DEB 4.4 05:17:48 10° N 05:23:07 53° WNW 05:28:24 10° SSW
Meteor 2-17 Rocket 4.4 05:17:46 10° NNW 05:23:47 69° W 05:29:46 10° S
Delta 2 Rocket 2.9 05:22:47 10° WNW 05:26:07 75° N 05:29:31 10° E
Cosmos 1697 Rocket 2.8 05:22:09 10° NNW 05:27:47 83° ENE 05:33:22 10° SSE
Cosmos 2251 Rocket 4.1 05:22:48 10° S 05:27:58 60° ESE 05:33:10 10° NNE
Cosmos 2100 Rocket 4.2 05:22:07 10° NNW 05:27:59 47° W 05:33:48 10° SSW
Cosmos 1842 Rocket 4.4 05:26:01 10° NNW 05:29:53 31° W 05:33:47 10° SSW
CZ-4B R/B 4.2 05:27:04 10° NNW 05:30:44 27° WNW 05:34:30 10° SW
Cosmos 2278 4.1 05:26:47 10° NW 05:32:04 40° WSW 05:37:19 10° S
EO 1 Del DPAF 3.4 05:28:35 10° S 05:32:20 53° W 05:36:08 10° NNW
MTI 4.0 05:29:40 10° S 05:32:48 48° W 05:35:58 10° NNW
Cosmos 2173 Rocket 4.3 05:29:15 10° NNW 05:35:10 45° W 05:40:59 10° SSW
IRAS Rocket 4.4 05:30:20 10° N 05:35:54 62° WNW 05:41:26 10° SSW
PSLV R/B 4.5 05:33:13 10° N 05:37:02 30° WNW 05:40:49 10° SW
Cosmos 1340 Rocket 3.2 05:33:46 10° S 05:37:45 69° E 05:41:44 10° NNE
DELTA 2 R/B(2) 3.8 05:37:17 11° W 05:38:45 37° NNW 05:40:40 10° NE
Cosmos 2369 4.3 05:34:26 10° NW 05:39:34 35° WSW 05:44:40 10° SSW
Cosmos 1184 Rocket 3.9 05:36:35 10° S 05:39:51 48° E 05:43:05 10° NNE
Cosmos 1674 2.7 05:45:49 10° SSW 05:49:32 62° W 05:53:18 10° N
CZ-4B R/B 3.9 05:46:13 10° N 05:50:06 56° WNW 05:53:48 10° SSW
Cosmos 2221 2.7 05:46:32 10° NNW 05:50:39 47° W 05:54:44 10° SSW
Meteor 1-21 Rocket 4.3 05:45:18 10° SSW 05:51:02 75° W 05:56:55 10° N
USA 116 4.5 05:46:04 10° S 05:51:26 76° WSW 05:56:39 10° NNW
